Location: Maignaut
(43.8886°N, 0.4051°E)
Time: 03:49:35
(UTC+00:00)

STARLINK-1045 - Pass Details

Date: 27 February 2020
Orbit: 549 x 550 km, 53.0° (Epoch: 02 April)

Event Time Altitude Azimuth Distance (km) Brightness Sun altitude
Rises 18:21:51 0° 229° (SW) 2,708 8.1 -7.7°
Reaches altitude 10° 18:24:05 10° 227° (SW) 1,818 7.1 -8.1°
Maximum altitude 18:28:12 75° 143° (SE) 574 3.6 -8.8°
Drops below altitude 10° 18:32:21 10° 58° (ENE) 1,832 5.8 -9.6°
Enters shadow 18:32:28 - 58° (ENE) 1,873 5.8 -9.6°
